Location: Newark
(51.0500°N, 12.4500°E)
Time: 22:03:08
(UTC+00:00)

Vanguard 1 - Pass Details

Date: 22 February 2020
Orbit: 649 x 3833 km, 34.2° (Epoch: 05 April)

Event Time Altitude Azimuth Distance (km) Brightness Sun altitude
Rises 08:16:27 0° 238° (WSW) 7,885 14.5 16.5°
Reaches altitude 10° 08:22:43 10° 232° (SW) 6,641 14.3 17.2°
Maximum altitude 08:40:07 38° 174° (S) 3,614 13.9 19.1°
Drops below altitude 10° 08:51:04 10° 112° (ESE) 4,240 14.6 20.3°
Sets 08:54:02 0° 104° (ESE) 4,872 14.5 20.6°
